Everett, WA
on Monday, February 4, 2013

Monday
Previous Day Next Day
Daily Summary
 ActualAverageRecord
Temperature
Mean Temperature °F °F  
Max Temperature 48°F 48°F 61°F (1992)
Min Temperature 42°F 33°F 6°F (1989)
Degree Days
Heating Degree Days 20    
Moisture
Dew Point 40°F   
Average Humidity 81    
Maximum Humidity 89    
Minimum Humidity 69    
Precipitation
Precipitation 0.00 in in in ()
Wind
Wind Speed 8 mph   
Max Wind Speed 12 mph   
Max Gust Speed mph   
Visibility 10 miles   
Events     
Averages and records for this station are not official NWS values.
Key: T is trace of precipitation, MM is missing value
Source: NWS Daily Summary
Seasonal Weather Averages
Time(PST)TemperatureDew PointHumidity Pressure Visibility Wind DirectionWind SpeedGust SpeedPrecipitationEvents Conditions
12:53 AM 44.1°F 41.0°F 89% 30.20 in 10.0 miles South 9.2 mph - N/A   Overcast
2:53 AM 42.8°F 39.2°F 87% 30.18 in 10.0 miles South 8.1 mph - N/A   Overcast
3:42 AM 42.8°F 39.2°F 87% 30.18 in 10.0 miles South 9.2 mph - N/A   Overcast
3:53 AM 43.0°F 39.9°F 89% 30.19 in 10.0 miles South 10.4 mph - N/A   Overcast
4:50 AM 44.6°F 39.2°F 81% 30.16 in 10.0 miles South 6.9 mph - N/A   Overcast
4:53 AM 44.1°F 39.9°F 85% 30.17 in 10.0 miles South 8.1 mph - N/A   Overcast
5:51 AM 44.6°F 39.2°F 81% 30.16 in 10.0 miles South 6.9 mph - N/A   Overcast
5:53 AM 44.1°F 39.9°F 85% 30.17 in 10.0 miles South 8.1 mph - N/A   Overcast
6:53 AM 43.0°F 39.9°F 89% 30.15 in 10.0 miles SSE 11.5 mph - N/A   Overcast
7:53 AM 43.0°F 39.9°F 89% 30.16 in 9.0 miles SSE 9.2 mph - N/A   Overcast
8:53 AM 44.1°F 39.9°F 85% 30.16 in 10.0 miles SSE 9.2 mph - N/A   Overcast
9:04 AM 44.6°F 39.2°F 81% 30.15 in 10.0 miles SSE 8.1 mph - N/A   Overcast
9:53 AM 44.1°F 39.9°F 85% 30.16 in 10.0 miles Variable 6.9 mph - N/A   Overcast
10:24 AM 44.6°F 39.2°F 81% 30.16 in 10.0 miles SSE 8.1 mph - N/A   Overcast
10:41 AM 44.6°F 39.2°F 81% 30.16 in 10.0 miles SSE 8.1 mph - N/A   Overcast
10:53 AM 45.0°F 39.0°F 80% 30.17 in 10.0 miles South 10.4 mph - N/A   Overcast
11:53 AM 46.0°F 39.0°F 76% 30.15 in 10.0 miles SSE 11.5 mph - N/A   Overcast
12:53 PM 46.9°F 39.0°F 74% 30.11 in 10.0 miles South 9.2 mph - N/A   Scattered Clouds
1:53 PM 48.9°F 39.0°F 69% 30.08 in 10.0 miles SSE 9.2 mph - N/A   Scattered Clouds
2:53 PM 48.9°F 39.0°F 69% 30.04 in 10.0 miles East 5.8 mph - N/A   Partly Cloudy
3:53 PM 48.0°F 39.9°F 74% 30.03 in 10.0 miles Calm Calm - N/A   Mostly Cloudy
4:53 PM 46.0°F 39.9°F 79% 30.01 in 10.0 miles Calm Calm - N/A   Overcast
5:53 PM 46.9°F 39.9°F 77% 30.01 in 10.0 miles ESE 3.5 mph - N/A   Overcast
6:53 PM 48.0°F 39.9°F 74% 29.98 in 10.0 miles Variable 5.8 mph - N/A   Overcast
7:53 PM 46.9°F 39.9°F 77% 29.93 in 10.0 miles ESE 8.1 mph - N/A   Overcast
8:53 PM 46.9°F 39.9°F 77% 29.90 in 10.0 miles ESE 6.9 mph - N/A   Scattered Clouds
9:53 PM 46.0°F 41.0°F 83% 29.91 in 10.0 miles SW 3.5 mph - N/A   Overcast
10:53 PM 46.9°F 39.9°F 77% 29.88 in 10.0 miles SSE 6.9 mph - N/A   Overcast
11:53 PM 46.0°F 39.9°F 79% 29.89 in 10.0 miles SSE 10.4 mph - N/A   Overcast
Moon Phase
Feb. 04 Feb. 10 Feb. 17 Feb. 25 Mar. 04
Sunrise:07:31 AM (PST) Moon Rise:02:19 AM (PST)2/4
Sunset:05:14 PM (PST) Moon Set:11:36 AM (PST)2/4

Copyright © 2014 The Weather Underground, Inc.